EHI
0 0 0 0 0 0 0 0 0 0 0 0 0 0 0 0 0 0 0 0 0 0 0 0 0 0 0 0 0 0 0 0 0 0 0 0 0 0 0 0 0 0 0
0 0 0 0 0 0 0 0 0 0 0 0 0 0 0 0 0 0 0 0 0 0 0 0 0 0 0 0 0 0 0 0 0 0 0 0 0 0 0 0 0 0 0
0 0 0 0 0 0 0 0 0 0 0 0 0 0 0 0 0 0 0 0 0 0 0 0 0 0 0 0 0 0 0 0 0 0 0 0 0 0 0 0 0 0 0
0 0 0 0 0 0 0 0 0 0 0 0 0 0 0 0 0 0 0 0 0 0 0 0 0 0 0 0 0 0 0 0 0 0 0 0 0 0 0 0 0 0 0
0 0 0 0 0 0 0 0 0 0 0 0 0 0 0 0 0 0 0 0 0 0 0 0 0 0 0 0 0 0 0 0 0 0 0 0 0 0 0 0 0 0 0
0 0 0 0 0 0 0 0 0 0 0 0 0 0 0 0 0 0 0 0 0 0 0 0 0 0 0 0 0 0 0 0 0 0 0 0 0 0 0 0 0 0 0
0 0 0 0 0 0 0 0 0 0 0 0 0 0 0 0 0 0 0 0 0 0 0 0 0 0 0 0 0 0 0 0 0 0 0 0 0 0 0 0 0 0 0
0 0 0 0 0 0 0 0 0 0 0 0 0 0 0 0 0 0 0 0 0 0 0 0 0 0 0 0 0 0 0 0 0 0 0 0 0 0 0 0 0 0 0
0 0 0 0 0 0 0 0 0 0 0 0 0 0 0 0 0 0 0 0 0 0 0 0 0 0 0 0 0 0 0 0 0 0 0 0 0 0 0 0 0 0 0
0 0 0 0 0 0 0 0 0 0 0 0 0 0 0 0 0 0 0 0 0 0 0 0 0 0 0 0 0 0 0 0 0 0 0 0 0 0 0 0 0 0 0
0 0 0 0 0 0 0 0 0 0 0 0 0 0 0 0 0 0 0 0 0 0 0 0 0 0 0 0 0 0 0 0 0 0 0 0 0 0 0 0 0 0 0
0 0 0 0 0 0 0 0 0 0 0 0 0 0 0 0 0 0 0 0 0 0 0 0 0 0 0 0 0 0 0 0 0 0 0 0 0 0 0 0 0 0 0
0 0 0 0 0 0 0 0 0 0 0 0 0 0 0 0 0 0 0 0 0 0 0 0 0 0 0 0 0 0 0 0 0 0 0 0 0 0 0 0 0 0 0
0 0 0 0 0 0 0 0 0 0 0 0 0 0 0 0 0 0 0 0 0 0 0 0 0 0 0 0 0 0 0 0 0 0 0 0 0 0 0 0 0 0 0
0 0 0 0 0 0 0 0 0 0 0 0 0 0 0 0 0 0 0 0 0 0 0 0 0 0 0 0 0 0 0 0 0 0 0 0 0 0 0 0 0 0 0
0 0 0 0 0 0 0 0 0 0 0 0 0 0 0 0 0 0 0 0 0 0 0 0 0 0 0 0 0 0 0 0 0 0 0 0 0 0 0 0 0 0 0
0 0 0 0 0 0 0 0 0 0 0 0 0 0 0 0 0 0 0 0 0 0 0 0 0 0 0 0 0 0 0 0 0 0 0 0 0 0 0 0 0 0 0
0 0 0 0 0 0 0 0 0 0 0 0 0 0 0 0 0 0 0 0 0 0 0 0 0 0 0 0 0 0 0 0 0 0 0 0 0 0 0 0 0 0 0
0 0 0 0 0 0 0 0 0 0 0 0 0 0 0 0 0 0 0 0 0 0 0 0 0 0 0 0 0 0 0 0 0 0 0 0 0 0 0 0 0 0 0
0 0 0 0 0 0 0 0 0 0 0 0 0 0 0 0 0 0 0 0 0 0 0 0 0 0 0 0 0 0 0 0 0 0 0 0 0 0 0 0 0 0 0
0 0 0 0 0 0 0 0 0 0 0 0 0 0 0 0 0 0 0 0 0 0 0 0 0 0 0 0 0 0 0 0 0 0 0 0 0 0 0 0 0 0 0
0 0 0 0 0 0 0 0 0 0 0 0 0 0 0 0 0 0 0 0 0 0 0 0 0 0 0 0 0 0 0 0 0 0 0 0 0 0 0 0 0 0 0
0 0 0 0 0 0 0 0 0 0 0 0 0 0 0 0 0 0 0 0 0 0 0 0 0 0 0 0 0 0 0 0 0 0 0 0 0 0 0 0 0 0 0
0 0 0 0 0 0 0 0 0 0 0 0 0 0 0 0 0 0 0 0 0 0 0 0 0 0 0 0 0 0 0 0 0 0 0 0 0 0 0 0 0 0 0
0 0 0 0 0 0 0 0 0 0 0 0 0 0 0 0 0 0 0 0 0 0 0 0 0 0 0 0 0 0 0 0 0 0 0 0 0 0 0 0 0 0 0
0 0 0 0 0 0 0 0 0 0 0 0 0 0 0 0 0 0 0 0 0 0 0 0 0 0 0 0 0 0 0 0 0 0 0 0 0 0 0 0 0 0 0
Wind_Speed
4 3 3 3 3 3 3 3 3 3 3 3 3 3 3 3 3 4 4 4 5 4 4 5 5 4 4 4 4 4 4 4 6 4 2 2 2 3 3 3 3 4 4
4 3 3 3 3 3 3 3 3 3 3 3 3 3 3 3 3 4 4 4 5 5 5 5 5 4 5 4 4 5 5 5 5 6 3 2 3 3 3 4 3 3 3
4 3 3 3 3 3 3 3 3 3 3 3 3 3 3 3 4 4 4 4 5 5 6 6 6 5 5 4 5 5 4 4 4 4 4 2 2 2 2 3 3 2 3
3 3 3 3 3 3 3 3 3 3 3 3 3 3 3 3 3 3 3 4 4 4 5 6 6 7 7 6 5 6 5 4 4 4 3 2 2 2 2 2 2 2 2
3 3 3 3 3 2 2 2 2 3 3 3 3 3 3 3 3 3 3 3 4 4 4 5 6 8 9 8 6 5 5 5 4 4 4 3 3 2 3 2 3 2 2
3 3 3 2 2 2 2 2 2 2 3 2 2 3 3 3 6 6 4 3 3 4 4 4 5 7 9 10 10 9 8 7 6 5 5 5 5 4 3 2 2 2 3
3 3 3 2 2 2 2 2 2 3 2 2 2 3 3 4 6 6 6 3 3 3 4 4 4 5 6 5 7 8 8 10 9 7 6 6 5 5 4 3 3 3 4
3 3 3 2 2 2 2 2 3 3 3 3 3 3 3 5 6 6 6 3 3 3 4 5 5 5 5 6 5 5 5 5 7 5 6 6 5 5 5 4 3 2 2
3 3 3 2 2 2 3 3 3 2 2 2 2 3 3 4 6 6 5 2 2 3 3 3 4 4 7 8 5 5 4 4 5 7 7 6 6 6 4 2 2 2 2
3 3 3 3 3 3 3 3 2 2 2 2 3 3 3 3 5 5 5 2 2 2 2 2 5 5 6 6 5 5 5 4 3 2 2 2 2 3 4 4 4 3 2
4 3 3 3 3 3 3 3 2 2 2 2 3 3 3 3 5 5 5 2 2 2 2 2 2 5 6 5 4 3 4 3 2 2 1 1 0 1 1 1 2 3 3
3 3 3 3 3 2 2 2 2 1 2 2 2 3 2 3 4 5 6 5 3 2 2 2 3 4 4 3 2 3 3 1 1 2 1 1 1 1 1 0 0 1 2
3 3 3 3 2 2 2 2 2 2 2 2 2 2 3 2 2 5 6 5 4 3 2 3 3 2 2 1 1 2 2 1 2 2 2 1 1 1 1 1 0 0 1
3 3 3 3 3 2 2 2 2 2 2 2 2 2 3 2 2 2 2 2 3 2 2 1 1 1 1 0 1 0 1 2 2 2 1 1 1 1 1 1 1 0 0
3 3 3 3 2 2 2 2 2 3 3 3 3 3 3 3 4 5 3 2 2 1 1 0 0 0 0 1 1 1 1 1 1 1 1 1 1 1 1 1 1 1 1
3 3 2 2 2 2 2 3 4 4 5 6 6 5 4 5 6 5 5 4 3 1 0 0 0 1 1 1 1 1 1 1 1 1 1 1 1 1 1 0 0 1 1
3 3 2 2 2 2 2 2 3 4 5 6 6 6 5 5 5 5 4 3 2 1 0 1 1 1 1 1 1 1 0 0 1 1 1 1 1 1 1 1 1 1 1
3 4 3 2 2 2 2 2 2 3 4 4 5 5 5 5 4 4 2 1 1 0 0 1 1 1 1 1 1 1 0 1 0 1 1 1 1 1 1 1 1 1 1
3 2 2 2 2 2 2 2 2 3 3 3 3 4 5 4 4 3 2 1 1 1 1 1 1 1 1 1 1 1 1 1 1 0 1 1 1 1 1 1 1 2 1
3 5 4 2 2 2 2 2 2 2 3 3 3 3 3 2 1 2 1 1 1 1 1 1 1 1 1 1 1 1 1 1 1 1 1 1 1 1 1 1 1 1 1
3 4 5 3 2 2 2 2 2 2 3 3 3 3 4 2 2 2 1 1 1 2 2 1 1 1 2 1 1 1 2 1 1 1 1 1 1 1 1 1 1 1 1
3 3 2 2 2 2 2 2 2 2 3 3 3 3 5 2 1 1 2 2 1 1 1 1 1 1 2 2 2 2 2 2 2 1 1 1 1 1 0 1 1 1 1
3 3 3 2 2 3 3 2 2 2 2 2 2 2 2 2 2 1 1 1 1 0 0 1 1 1 1 1 2 2 3 3 2 2 2 1 1 1 1 1 1 1 1
3 3 3 3 3 2 2 2 2 2 2 2 2 2 2 2 2 1 1 1 0 0 0 1 1 2 2 1 1 2 2 2 2 2 3 2 1 1 1 1 1 1 1
2 3 3 3 3 3 3 3 3 2 2 2 2 2 2 2 2 1 1 1 0 0 1 1 1 1 2 2 2 2 2 2 2 2 2 2 2 2 2 2 2 2 1
2 3 3 3 3 3 3 3 3 3 2 2 2 2 2 2 2 1 1 0 0 1 1 1 1 1 2 2 2 2 2 2 3 3 2 2 2 2 2 2 2 2 2
Wind_Direction
298 282 275 274 263 248 244 252 253 255 252 240 235 235 232 227 220 216 215 208 211 217 214 214 222 218 217 212 210 211 212 210 240 257 234 230 233 249 271 266 259 251 255
291 280 276 277 273 263 261 263 262 256 255 251 241 235 239 239 232 220 218 218 218 220 222 221 226 223 224 216 210 215 218 214 226 251 251 232 238 238 250 260 268 262 252
297 283 281 283 277 272 271 270 268 264 264 262 247 241 240 240 243 226 214 222 227 227 224 221 222 216 231 225 216 218 218 220 220 232 247 245 252 248 254 263 267 270 266
298 285 273 267 266 270 272 269 267 266 260 256 251 248 241 237 237 227 225 228 228 235 230 225 223 218 225 222 224 220 213 214 216 225 238 247 251 247 226 250 276 266 274
305 294 281 271 267 273 276 276 276 270 269 261 257 260 251 235 236 227 225 232 232 238 238 233 231 232 232 231 227 217 209 214 214 222 235 243 237 225 229 225 251 273 277
302 298 299 293 279 271 273 275 281 281 278 267 259 257 258 258 261 258 255 234 235 237 245 248 243 241 237 239 238 230 220 217 215 218 231 234 238 230 221 219 236 257 271
310 306 305 294 278 271 275 279 276 273 274 267 262 260 261 263 263 263 266 252 230 237 242 246 250 244 239 229 234 236 234 232 229 226 229 233 229 222 210 221 235 246 250
309 306 305 295 283 278 271 268 270 272 268 266 269 271 271 269 272 270 272 262 239 240 240 240 241 241 233 223 219 227 234 239 238 234 229 231 227 214 209 214 221 244 277
302 298 299 291 287 285 274 268 269 265 269 268 268 268 268 273 279 276 279 257 248 252 250 248 243 240 236 227 218 222 234 244 248 245 244 234 225 222 210 179 196 217 269
299 294 294 286 277 279 279 272 265 257 264 278 282 272 267 272 283 286 288 258 255 263 264 257 254 249 245 231 218 215 227 230 214 223 226 215 221 213 221 213 199 209 242
298 294 292 288 281 278 283 277 270 275 283 280 283 279 270 276 290 295 295 278 259 262 264 267 261 255 250 239 231 220 221 211 187 183 178 178 199 211 215 224 215 210 221
311 308 307 305 298 298 288 291 285 274 281 282 287 293 287 280 294 298 304 298 286 260 261 266 260 259 243 235 241 221 216 202 154 162 177 202 209 223 219 198 209 237 236
330 323 320 316 305 300 292 286 282 264 257 272 275 281 292 291 293 301 306 304 301 288 268 268 272 270 255 235 207 211 206 159 155 178 197 216 220 209 177 129 79 103 308
321 318 318 322 322 320 311 298 284 270 265 265 268 278 283 287 288 288 284 289 294 295 289 283 313 358 338 143 169 151 126 157 171 178 188 192 163 175 206 193 196 186 354
322 317 321 322 320 324 320 304 289 276 267 267 265 263 271 275 283 290 285 277 267 253 272 354 30 35 62 78 103 111 116 123 121 134 146 159 181 188 223 205 196 222 214
319 318 317 318 315 313 318 326 326 311 313 303 290 281 281 282 289 291 293 290 290 268 326 245 228 193 202 201 177 135 116 128 138 140 140 151 200 199 205 209 196 211 223
310 311 312 315 314 312 314 320 324 332 331 324 312 304 295 295 296 300 299 289 284 279 140 242 241 216 221 203 176 169 187 138 137 147 159 179 209 207 186 196 208 206 252
315 308 307 301 300 302 304 303 304 311 319 322 323 319 316 311 308 310 302 304 311 3 195 239 239 211 198 199 197 186 164 131 141 163 170 196 218 219 200 201 207 212 235
317 312 306 300 293 292 296 302 303 301 302 306 311 319 325 322 320 321 319 296 241 259 260 246 224 199 197 196 203 192 177 180 190 191 216 227 234 241 233 217 215 233 241
311 308 307 304 302 300 297 296 297 297 298 300 302 305 317 324 320 318 319 297 250 246 247 236 208 186 189 188 198 200 189 189 193 215 239 244 245 236 234 237 219 209 208
312 313 315 315 306 299 296 293 289 289 291 292 293 300 306 308 296 295 294 278 253 249 239 216 198 190 189 187 193 199 202 205 209 213 225 233 236 243 240 221 199 173 155
314 313 315 306 301 303 302 297 294 295 299 299 305 314 318 316 295 283 276 273 267 256 238 207 208 207 198 192 196 202 211 211 209 205 205 219 224 232 219 174 157 145 143
318 319 322 321 312 308 313 311 306 305 303 303 305 310 313 307 302 298 295 297 299 282 251 213 211 215 205 201 206 205 208 211 207 197 195 202 214 209 170 157 158 149 146
319 318 319 321 321 316 310 305 302 298 296 298 300 300 303 305 308 308 305 309 314 305 265 221 203 202 209 218 223 219 215 208 193 190 186 185 194 194 163 149 146 152 156
324 322 322 318 317 317 316 314 312 307 304 302 306 315 320 320 318 314 310 308 297 291 276 247 215 202 204 218 225 212 202 201 202 180 173 173 171 168 158 154 148 137 139
327 324 320 318 315 315 315 314 313 314 311 307 307 311 316 322 319 312 311 312 308 295 286 268 241 227 220 219 212 201 197 194 182 171 160 158 158 160 157 150 147 140 133